PARS 1

Last updated on Tue Jul 08 2025 00:02:30 GMT+0000 (Coordinated Universal Time)

1 59065U 24039Q 25188.57286134 .00006535 00000+0 18306-3 0 9992 2 59065 97.4401 156.9281 0009302 278.4211 81.5978 15.36929938 75569
UTC large
Height (km)
Speed (km/s)
/
Latitude / Longitude
Inclination (degrees)
Orbital Period (minutes)
Azimuth
Elevation
Range (km)
Doppler Factor

Next 0 passes for location: London (51.5072 / 0.1276)

Sorry there are no passes over London.